• In Belarus
  • List of Countries
  • For 7 days
  • Water Temperature
  • Satellite Maps
  • Weather Map
  • Weather Widgets
  • user-avatar
    Login

    Hourly Weather Canillo

    Today, 23 October, Monday

    Time Temperature Precipitation Wind Pressure Humidity
    00:00 +1°C° 0 mm 2 mps 623 mmHg 71%
    01:00 +1°C° 0 mm 2 mps 623 mmHg 71%
    02:00 +1°C° 0 mm 2 mps 622 mmHg 71%
    03:00 +1°C° 0 mm 2 mps 622 mmHg 71%
    04:00 +1°C° 0 mm 2 mps 622 mmHg 70%
    05:00 -1°C° 0 mm 2 mps 622 mmHg 70%
    06:00 -1°C° 0 mm 2 mps 622 mmHg 69%
    07:00 +3°C° 0 mm 2 mps 623 mmHg 62%
    08:00 +5°C° 0 mm 2 mps 624 mmHg 55%
    09:00 +7°C° 0 mm 2 mps 625 mmHg 48%
    10:00 +8°C° 0 mm 2 mps 625 mmHg 45%
    11:00 +10°C° 0 mm 2 mps 626 mmHg 42%
    12:00 +11°C° 0 mm 3 mps 626 mmHg 39%
    13:00 +11°C° 0 mm 3 mps 626 mmHg 41%
    14:00 +10°C° 0 mm 3 mps 625 mmHg 44%
    15:00 +10°C° 0 mm 3 mps 625 mmHg 46%
    16:00 +8°C° 0 mm 2 mps 624 mmHg 53%
    17:00 +6°C° 0 mm 2 mps 624 mmHg 61%
    18:00 +4°C° 0 mm 2 mps 623 mmHg 69%
    19:00 +4°C° 0 mm 2 mps 623 mmHg 69%
    20:00 +4°C° 0 mm 2 mps 623 mmHg 68%
    21:00 +4°C° 0 mm 2 mps 623 mmHg 68%
    22:00 +4°C° 0 mm 2 mps 623 mmHg 68%
    23:00 +4°C° 0 mm 2 mps 623 mmHg 68%

    Tomorrow, 24 October, Tuesday

    Time Temperature Precipitation Wind Pressure Humidity
    00:00 +4°C° 0 mm 2 mps 624 mmHg 68%
    01:00 +4°C° 0 mm 2 mps 623 mmHg 69%
    02:00 +4°C° 0 mm 2 mps 623 mmHg 70%
    03:00 +5°C° 0 mm 2 mps 623 mmHg 71%
    04:00 +5°C° 0 mm 2 mps 623 mmHg 71%
    05:00 +5°C° 0 mm 2 mps 623 mmHg 71%
    06:00 +5°C° 0 mm 2 mps 623 mmHg 71%
    07:00 +7°C° 0 mm 2 mps 624 mmHg 64%
    08:00 +11°C° 0 mm 1 mps 626 mmHg 58%
    09:00 +13°C° 0 mm 1 mps 627 mmHg 52%
    10:00 +15°C° 0 mm 1 mps 627 mmHg 49%
    11:00 +16°C° 0 mm 1 mps 627 mmHg 45%
    12:00 +18°C° 0 mm 1 mps 628 mmHg 42%
    13:00 +18°C° 0 mm 1 mps 627 mmHg 44%
    14:00 +18°C° 0 mm 1 mps 627 mmHg 46%
    15:00 +16°C° 0 mm 1 mps 626 mmHg 48%
    16:00 +14°C° 0 mm 1 mps 625 mmHg 56%
    17:00 +12°C° 0 mm 1 mps 625 mmHg 65%
    18:00 +9°C° 0 mm 1 mps 624 mmHg 73%
    19:00 +9°C° 0 mm 1 mps 624 mmHg 72%
    20:00 +9°C° 0 mm 1 mps 624 mmHg 71%
    21:00 +9°C° 0 mm 1 mps 624 mmHg 70%
    22:00 +9°C° 0 mm 1 mps 624 mmHg 68%
    23:00 +8°C° 0 mm 1 mps 624 mmHg 66%

    Day after tomorrow, 25 October, Wednesday

    Time Temperature Precipitation Wind Pressure Humidity
    00:00 +8°C° 0 mm 1 mps 624 mmHg 63%
    01:00 +8°C° 0 mm 1 mps 624 mmHg 62%
    02:00 +8°C° 0 mm 1 mps 624 mmHg 61%
    03:00 +8°C° 0 mm 1 mps 624 mmHg 60%
    04:00 +8°C° 0 mm 1 mps 624 mmHg 59%
    05:00 +8°C° 0 mm 1 mps 624 mmHg 59%
    06:00 +8°C° 0 mm 1 mps 624 mmHg 59%
    07:00 +10°C° 0 mm 1 mps 625 mmHg 54%
    08:00 +12°C° 0 mm 1 mps 626 mmHg 49%
    09:00 +15°C° 0 mm 1 mps 627 mmHg 44%
    10:00 +16°C° 0 mm 1 mps 628 mmHg 43%
    11:00 +18°C° 0 mm 1 mps 628 mmHg 41%
    12:00 +18°C° 0 mm 2 mps 629 mmHg 39%
    13:00 +18°C° 0 mm 2 mps 628 mmHg 41%
    14:00 +17°C° 0 mm 2 mps 628 mmHg 44%
    15:00 +17°C° 0 mm 2 mps 628 mmHg 47%
    16:00 +14°C° 0 mm 1 mps 627 mmHg 55%
    17:00 +12°C° 0 mm 1 mps 626 mmHg 64%
    18:00 +10°C° 0 mm 1 mps 625 mmHg 72%
    19:00 +9°C° 0 mm 1 mps 625 mmHg 72%
    20:00 +9°C° 0 mm 1 mps 626 mmHg 71%
    21:00 +9°C° 0 mm 1 mps 626 mmHg 70%
    22:00 +9°C° 0 mm 1 mps 626 mmHg 69%
    23:00 +9°C° 0 mm 1 mps 626 mmHg 68%

    26 October, Thursday

    Time Temperature Precipitation Wind Pressure Humidity
    00:00 +9°C° 0 mm 1 mps 626 mmHg 67%
    01:00 +9°C° 0 mm 1 mps 626 mmHg 66%
    02:00 +9°C° 0 mm 1 mps 625 mmHg 65%
    03:00 +9°C° 0 mm 1 mps 625 mmHg 64%
    04:00 +8°C° 0 mm 1 mps 625 mmHg 63%
    05:00 +8°C° 0 mm 1 mps 625 mmHg 62%
    06:00 +8°C° 0 mm 1 mps 625 mmHg 62%
    07:00 +11°C° 0 mm 1 mps 627 mmHg 55%
    08:00 +13°C° 0 mm 1 mps 628 mmHg 49%
    09:00 +15°C° 0 mm 0 mps 629 mmHg 43%
    10:00 +18°C° 0 mm 1 mps 630 mmHg 40%
    11:00 +19°C° 0 mm 1 mps 630 mmHg 37%
    12:00 +20°C° 0 mm 1 mps 630 mmHg 34%
    13:00 +20°C° 0 mm 1 mps 630 mmHg 37%
    14:00 +19°C° 0 mm 1 mps 630 mmHg 39%
    15:00 +19°C° 0 mm 1 mps 629 mmHg 41%
    16:00 +16°C° 0 mm 1 mps 628 mmHg 49%
    17:00 +13°C° 0 mm 1 mps 628 mmHg 58%
    18:00 +11°C° 0 mm 1 mps 627 mmHg 66%
    19:00 +11°C° 0 mm 1 mps 627 mmHg 64%
    20:00 +10°C° 0 mm 1 mps 627 mmHg 62%
    21:00 +10°C° 0 mm 1 mps 627 mmHg 60%
    22:00 +10°C° 0 mm 1 mps 627 mmHg 57%
    23:00 +10°C° 0 mm 1 mps 627 mmHg 54%

    27 October, Friday

    Time Temperature Precipitation Wind Pressure Humidity
    00:00 +10°C° 0 mm 1 mps 627 mmHg 51%
    01:00 +9°C° 0 mm 2 mps 627 mmHg 49%
    02:00 +8°C° 0 mm 2 mps 626 mmHg 47%
    03:00 +8°C° 0 mm 2 mps 626 mmHg 46%
    04:00 +8°C° 0 mm 2 mps 626 mmHg 45%
    05:00 +8°C° 0 mm 2 mps 626 mmHg 45%
    06:00 +8°C° 0 mm 2 mps 626 mmHg 45%
    07:00 +10°C° 0 mm 2 mps 627 mmHg 43%
    08:00 +13°C° 0 mm 2 mps 628 mmHg 41%
    09:00 +15°C° 0 mm 2 mps 629 mmHg 39%
    10:00 +16°C° 0 mm 2 mps 629 mmHg 37%
    11:00 +17°C° 0 mm 2 mps 629 mmHg 34%
    12:00 +18°C° 0 mm 3 mps 629 mmHg 32%
    13:00 +18°C° 0 mm 3 mps 629 mmHg 34%
    14:00 +17°C° 0 mm 3 mps 628 mmHg 36%
    15:00 +17°C° 0 mm 3 mps 628 mmHg 38%
    16:00 +13°C° 0 mm 3 mps 627 mmHg 46%
    17:00 +11°C° 0 mm 3 mps 626 mmHg 54%
    18:00 +9°C° 0 mm 3 mps 625 mmHg 62%
    19:00 +8°C° 0 mm 3 mps 625 mmHg 63%
    20:00 +8°C° 0 mm 3 mps 625 mmHg 63%
    21:00 +7°C° 0 mm 3 mps 624 mmHg 63%
    22:00 +7°C° 0 mm 3 mps 624 mmHg 64%
    23:00 +5°C° 0 mm 3 mps 624 mmHg 64%

    28 October, Saturday

    Time Temperature Precipitation Wind Pressure Humidity
    00:00 +5°C° 0 mm 3 mps 623 mmHg 64%
    01:00 +5°C° 0 mm 3 mps 623 mmHg 67%
    02:00 +4°C° 0 mm 3 mps 623 mmHg 70%
    03:00 +4°C° 0 mm 4 mps 623 mmHg 73%
    04:00 +4°C° 0 mm 3 mps 623 mmHg 74%
    05:00 +4°C° 0 mm 3 mps 623 mmHg 75%
    06:00 +4°C° 0 mm 3 mps 623 mmHg 76%
    07:00 +5°C° 0 mm 3 mps 624 mmHg 70%
    08:00 +7°C° 0 mm 3 mps 624 mmHg 63%
    09:00 +8°C° 0 mm 3 mps 625 mmHg 56%
    10:00 +10°C° 0 mm 3 mps 625 mmHg 50%
    11:00 +11°C° 0 mm 3 mps 626 mmHg 44%
    12:00 +12°C° 0 mm 3 mps 626 mmHg 38%
    13:00 +12°C° 0 mm 3 mps 625 mmHg 39%
    14:00 +12°C° 0 mm 3 mps 625 mmHg 40%
    15:00 +11°C° 0 mm 3 mps 625 mmHg 42%
    16:00 +9°C° 0 mm 3 mps 624 mmHg 50%
    17:00 +7°C° 0 mm 3 mps 623 mmHg 59%
    18:00 +4°C° 0 mm 3 mps 622 mmHg 68%
    19:00 +4°C° 0 mm 3 mps 622 mmHg 66%
    20:00 +3°C° 0 mm 3 mps 622 mmHg 63%
    21:00 +3°C° 0 mm 3 mps 622 mmHg 60%
    22:00 +3°C° 0 mm 3 mps 622 mmHg 56%
    23:00 +3°C° 0 mm 3 mps 622 mmHg 51%

    29 October, Sunday

    Time Temperature Precipitation Wind Pressure Humidity
    00:00 +2°C° 0 mm 3 mps 622 mmHg 47%
    01:00 +2°C° 0 mm 3 mps 622 mmHg 44%
    02:00 +2°C° 0 mm 3 mps 621 mmHg 40%
    03:00 +2°C° 0 mm 3 mps 621 mmHg 37%
    04:00 +2°C° 0 mm 3 mps 621 mmHg 36%
    05:00 +2°C° 0 mm 3 mps 621 mmHg 34%
    06:00 +2°C° 0 mm 3 mps 621 mmHg 32%
    07:00 +4°C° 0 mm 3 mps 622 mmHg 30%
    08:00 +7°C° 0 mm 3 mps 623 mmHg 27%
    09:00 +9°C° 0 mm 2 mps 624 mmHg 25%
    10:00 +11°C° 0 mm 3 mps 624 mmHg 23%
    11:00 +12°C° 0 mm 3 mps 624 mmHg 22%
    12:00 +13°C° 0 mm 3 mps 624 mmHg 21%
    13:00 +13°C° 0 mm 3 mps 624 mmHg 23%
    14:00 +13°C° 0 mm 2 mps 623 mmHg 25%
    15:00 +13°C° 0 mm 2 mps 623 mmHg 27%
    16:00 +9°C° 0 mm 2 mps 622 mmHg 32%
    17:00 +7°C° 0 mm 2 mps 621 mmHg 37%
    18:00 +4°C° 0 mm 2 mps 620 mmHg 42%
    19:00 +4°C° 0 mm 2 mps 620 mmHg 39%
    20:00 +3°C° 0 mm 2 mps 620 mmHg 37%
    21:00 +3°C° 0 mm 2 mps 620 mmHg 34%
    22:00 +3°C° 0 mm 2 mps 620 mmHg 32%
    23:00 +2°C° 0 mm 2 mps 620 mmHg 31%
    Show more